Stanton, MN

10:08 PM CDT on May 25, 2017 (GMT -0500)
Stanton

Weather History for KSYN - October, 2012

Change the Weather History Date:

Monday, October 22, 2012

  Actual Average (KLVN) Record (KLVN)
Temperature  
Mean Temperature 54 °F -  
Max Temperature 63 °F 57 °F 81 °F (1992)
Min Temperature 44 °F 36 °F 18 °F (1976)
Degree Days  
Heating Degree Days 12    
Growing Degree Days 4 (Base 50)    
Moisture  
Dew Point 48 °F    
Average Humidity 77    
Maximum Humidity 91    
Minimum Humidity 59    
Precipitation  
Precipitation 0.00 in - - ()
Sea Level Pressure  
Sea Level Pressure 29.88 in    
Wind  
Wind Speed 5 mph (ENE)    
Max Wind Speed 18 mph    
Max Gust Speed 22 mph    
Visibility 9 miles    
Events Rain , Thunderstorm    
Averages and records for this station are not official NWS values.
T = Trace of Precipitation, MM = Missing Value Source: NWS Daily Summary

Daily Weather History Graph

Daily Weather History Graph

Search for Another Location

Airport or City:

Trip Planner

Search our weather history database for the weather conditions in past years. The results will help you decide how hot, cold, wet, or windy it might be!

Date:

Astronomy

Oct. 22, 2012 Rise Set
Actual Time 7:36 AM CDT 6:15 PM CDT
Civil Twilight 7:07 AM CDT 6:45 PM CDT
Nautical Twilight 6:33 AM CDT 7:18 PM CDT
Astronomical Twilight 5:59 AM CDT 7:52 PM CDT
Moon 2:38 PM CDT (10/22) 12:08 AM CDT (10/22)
Length of Visible Light 11h 37m
Length of Day
10h 38m
First Quarter, 56% of the Moon is Illuminated
Oct 22
First Quarter
Oct 29
Full
Nov 6
Last Quarter
Nov 13
New
Nov 20
First Quarter

Hourly Weather History & Observations

Time (CDT) Temp. Dew Point Humidity Pressure Visibility Wind Dir Wind Speed Gust Speed Precip Events Conditions
12:12 AM 50.5 °F 46.4 °F 86% 29.88 in 10.0 mi Calm Calm - N/A   Clear
12:52 AM 48.2 °F 45.1 °F 89% 29.88 in 10.0 mi Calm Calm - N/A   Clear
1:32 AM 46.6 °F 43.9 °F 90% 29.88 in 7.0 mi Calm Calm - N/A   Clear
1:52 AM 47.5 °F 45.0 °F 91% 29.88 in 7.0 mi Calm Calm - N/A   Clear
2:12 AM 45.1 °F 42.3 °F 90% 29.87 in 7.0 mi Calm Calm - N/A   Clear
2:32 AM 45.1 °F 42.6 °F 91% 29.86 in 7.0 mi Calm Calm - N/A   Clear
2:52 AM 45.0 °F 42.3 °F 90% 29.86 in 7.0 mi Calm Calm - N/A   Clear
3:11 AM 44.8 °F 42.1 °F 90% 29.86 in 7.0 mi Calm Calm - N/A   Clear
3:52 AM 44.1 °F 41.2 °F 90% 29.85 in 7.0 mi Calm Calm - N/A   Clear
4:12 AM 44.6 °F 41.5 °F 89% 29.85 in 7.0 mi Calm Calm - N/A   Scattered Clouds
4:32 AM 44.8 °F 42.1 °F 90% 29.85 in 7.0 mi Calm Calm - N/A   Mostly Cloudy
4:52 AM 46.4 °F 43.7 °F 90% 29.86 in 7.0 mi Calm Calm - N/A   Overcast
5:12 AM 47.3 °F 44.2 °F 89% 29.87 in 7.0 mi NW 3.5 mph - N/A   Mostly Cloudy
5:32 AM 47.7 °F 45.0 °F 90% 29.88 in 7.0 mi Calm Calm - N/A   Mostly Cloudy
5:52 AM 48.6 °F 45.9 °F 90% 29.88 in 7.0 mi NNE 6.9 mph - N/A   Overcast
6:12 AM 50.4 °F 47.3 °F 89% 29.88 in 7.0 mi North 4.6 mph - N/A   Overcast
6:32 AM 50.2 °F 47.3 °F 90% 29.88 in 5.0 mi East 4.6 mph - N/A   Overcast
6:52 AM 51.4 °F 48.2 °F 89% 29.88 in 7.0 mi ENE 5.8 mph - N/A   Overcast
7:12 AM 51.6 °F 48.2 °F 88% 29.88 in 7.0 mi NE 4.6 mph - N/A   Overcast
7:32 AM 52.9 °F 48.4 °F 85% 29.89 in 10.0 mi NE 4.6 mph - N/A Rain Light Rain
7:52 AM 53.4 °F 48.6 °F 84% 29.90 in 10.0 mi NNE 4.6 mph - N/A   Overcast
8:12 AM 52.9 °F 48.2 °F 84% 29.89 in 10.0 mi NNE 10.4 mph - N/A   Mostly Cloudy
8:32 AM 53.6 °F 48.4 °F 82% 29.91 in 10.0 mi East 4.6 mph - N/A   Overcast
8:52 AM 54.0 °F 48.9 °F 83% 29.90 in 10.0 mi NNE 4.6 mph - N/A   Overcast
9:12 AM 55.0 °F 49.1 °F 80% 29.90 in 10.0 mi NNE 6.9 mph - N/A   Overcast
9:31 AM 55.4 °F 48.7 °F 78% 29.90 in 10.0 mi NE 6.9 mph - N/A   Overcast
9:52 AM 56.3 °F 48.7 °F 76% 29.91 in 10.0 mi NNE 6.9 mph - N/A   Overcast
10:12 AM 57.0 °F 48.6 °F 73% 29.91 in 10.0 mi ENE 5.8 mph - N/A   Overcast
10:32 AM 57.6 °F 48.6 °F 72% 29.90 in 10.0 mi ENE 11.5 mph - N/A   Overcast
10:52 AM 58.3 °F 48.9 °F 71% 29.90 in 10.0 mi ENE 10.4 mph - N/A   Overcast
11:12 AM 59.0 °F 48.7 °F 69% 29.90 in 10.0 mi NNE 11.5 mph - N/A   Overcast
11:33 AM 59.2 °F 48.9 °F 69% 29.90 in 10.0 mi NE 9.2 mph - N/A   Overcast
11:52 AM 59.2 °F 48.7 °F 68% 29.90 in 10.0 mi NE 10.4 mph - N/A   Overcast
12:12 PM 59.9 °F 49.1 °F 67% 29.90 in 10.0 mi NE 9.2 mph - N/A   Overcast
12:32 PM 61.7 °F 49.5 °F 64% 29.90 in 10.0 mi ENE 11.5 mph - N/A   Overcast
12:52 PM 63.7 °F 49.6 °F 60% 29.90 in 10.0 mi ENE 12.7 mph 17.3 mph N/A   Overcast
1:12 PM 63.3 °F 49.3 °F 60% 29.89 in 10.0 mi ENE 11.5 mph - N/A   Overcast
1:32 PM 63.3 °F 49.3 °F 60% 29.88 in 10.0 mi ENE 12.7 mph - N/A   Overcast
1:52 PM 63.3 °F 49.3 °F 60% 29.88 in 10.0 mi ENE 12.7 mph - N/A   Overcast
2:12 PM 63.1 °F 49.1 °F 60% 29.87 in 10.0 mi ENE 17.3 mph - N/A   Overcast
2:32 PM 63.7 °F 49.1 °F 59% 29.86 in 10.0 mi ENE 18.4 mph 21.9 mph N/A Thunderstorm Overcast
2:52 PM 63.5 °F 48.7 °F 59% 29.86 in 10.0 mi ENE 13.8 mph - N/A Thunderstorm Overcast
3:12 PM 63.1 °F 48.6 °F 59% 29.86 in 10.0 mi ENE 11.5 mph - N/A   Overcast
3:32 PM 62.2 °F 47.8 °F 59% 29.86 in 10.0 mi ENE 13.8 mph - N/A   Overcast
3:52 PM 61.3 °F 48.6 °F 63% 29.86 in 10.0 mi ENE 18.4 mph - N/A   Overcast
4:12 PM 60.8 °F 49.6 °F 67% 29.86 in 10.0 mi ENE 18.4 mph 21.9 mph N/A   Overcast
4:32 PM 60.8 °F 50.0 °F 68% 29.87 in 10.0 mi ENE 10.4 mph 18.4 mph N/A   Overcast
4:52 PM 60.1 °F 49.5 °F 68% 29.87 in 10.0 mi ENE 16.1 mph 20.7 mph N/A   Overcast
5:12 PM 59.9 °F 49.6 °F 69% 29.87 in 10.0 mi ENE 15.0 mph - N/A   Overcast
5:32 PM 59.4 °F 49.3 °F 69% 29.88 in 10.0 mi ENE 15.0 mph 20.7 mph N/A   Overcast
5:52 PM 59.0 °F 49.3 °F 70% 29.88 in 10.0 mi ENE 13.8 mph 20.7 mph N/A   Overcast
6:12 PM 58.5 °F 49.6 °F 72% 29.88 in 10.0 mi East 10.4 mph 20.7 mph N/A   Overcast
6:32 PM 58.1 °F 50.0 °F 74% 29.88 in 10.0 mi ENE 13.8 mph - N/A   Overcast
6:52 PM 58.1 °F 50.2 °F 75% 29.89 in 10.0 mi ENE 11.5 mph - N/A   Overcast
7:12 PM 57.7 °F 50.4 °F 76% 29.89 in 10.0 mi ENE 10.4 mph - N/A   Overcast
7:32 PM 57.7 °F 50.5 °F 77% 29.89 in 10.0 mi East 10.4 mph - N/A   Overcast
7:52 PM 57.9 °F 50.7 °F 77% 29.89 in 10.0 mi ENE 6.9 mph - N/A   Overcast
8:12 PM 58.1 °F 50.7 °F 76% 29.89 in 10.0 mi ENE 9.2 mph - N/A   Overcast
8:32 PM 58.1 °F 50.9 °F 77% 29.88 in 10.0 mi ENE 8.1 mph - N/A   Overcast
8:52 PM 58.1 °F 50.9 °F 77% 29.88 in 10.0 mi ENE 9.2 mph - N/A   Overcast
9:12 PM 58.3 °F 50.9 °F 76% 29.88 in 10.0 mi ENE 6.9 mph - N/A   Overcast
9:32 PM 58.3 °F 50.9 °F 76% 29.87 in 10.0 mi ENE 8.1 mph - N/A   Overcast
9:52 PM 58.3 °F 50.9 °F 76% 29.87 in 10.0 mi ENE 8.1 mph - N/A   Overcast
10:12 PM 58.5 °F 51.1 °F 76% 29.88 in 10.0 mi ENE 5.8 mph - N/A   Overcast
10:32 PM 58.1 °F 51.1 °F 77% 29.87 in 10.0 mi ENE 5.8 mph - N/A   Overcast
10:52 PM 58.1 °F 51.3 °F 78% 29.86 in 10.0 mi NE 8.1 mph - N/A   Overcast
11:12 PM 58.1 °F 51.4 °F 78% 29.85 in 10.0 mi ENE 9.2 mph - N/A   Overcast
11:32 PM 58.3 °F 51.8 °F 79% 29.85 in 10.0 mi ENE 8.1 mph - N/A   Overcast
11:52 PM 58.1 °F 51.8 °F 80% 29.84 in 10.0 mi ENE 5.8 mph - N/A   Overcast